• In Deutschland
  • Länderverzeichnis
  • Für 7 Tage
  • Wassertemperatur
  • Satellitenkarten
  • Wetterkarte
  • Widgets
  • user-avatar
    Anmelden

    Stündliche Wetter Puerto Iguazú

    Heute, 21 September, Freitag

    Zeit Temperatur Niederschläge Wind Luftdruck Luftfeuchtigkeit
    00:00 +21°C° 0 mm 1 m/S 744 mmHg 97%
    01:00 +21°C° 0 mm 1 m/S 744 mmHg 97%
    02:00 +20°C° 0 mm 1 m/S 743 mmHg 97%
    03:00 +20°C° 0 mm 1 m/S 744 mmHg 97%
    04:00 +20°C° 0 mm 1 m/S 744 mmHg 97%
    05:00 +20°C° 0 mm 1 m/S 744 mmHg 97%
    06:00 +22°C° 0 mm 1 m/S 744 mmHg 91%
    07:00 +24°C° 0 mm 2 m/S 745 mmHg 84%
    08:00 +26°C° 0 mm 2 m/S 745 mmHg 78%
    09:00 +28°C° 0.1 mm 2 m/S 745 mmHg 72%
    10:00 +30°C° 0.1 mm 2 m/S 745 mmHg 66%
    11:00 +32°C° 0.1 mm 2 m/S 745 mmHg 59%
    12:00 +32°C° 1 mm 2 m/S 744 mmHg 61%
    13:00 +32°C° 1 mm 1 m/S 744 mmHg 62%
    14:00 +32°C° 1 mm 1 m/S 743 mmHg 63%
    15:00 +31°C° 0.1 mm 1 m/S 743 mmHg 67%
    16:00 +30°C° 0.1 mm 1 m/S 743 mmHg 71%
    17:00 +27°C° 0.1 mm 0 m/S 743 mmHg 75%
    18:00 +25°C° 0 mm 0 m/S 744 mmHg 79%
    19:00 +26°C° 0 mm 1 m/S 744 mmHg 83%
    20:00 +25°C° 0 mm 1 m/S 744 mmHg 87%
    21:00 +25°C° 0 mm 1 m/S 744 mmHg 88%
    22:00 +24°C° 0 mm 1 m/S 744 mmHg 90%
    23:00 +24°C° 0 mm 1 m/S 744 mmHg 92%

    Morgen, 22 September, Samstag

    Zeit Temperatur Niederschläge Wind Luftdruck Luftfeuchtigkeit
    00:00 +24°C° 0 mm 1 m/S 744 mmHg 93%
    01:00 +23°C° 0 mm 1 m/S 744 mmHg 94%
    02:00 +23°C° 0 mm 1 m/S 743 mmHg 95%
    03:00 +23°C° 0 mm 1 m/S 743 mmHg 95%
    04:00 +23°C° 0 mm 1 m/S 743 mmHg 95%
    05:00 +23°C° 0 mm 1 m/S 743 mmHg 96%
    06:00 +24°C° 0 mm 1 m/S 744 mmHg 89%
    07:00 +26°C° 0 mm 1 m/S 744 mmHg 81%
    08:00 +28°C° 0 mm 2 m/S 744 mmHg 74%
    09:00 +30°C° 0 mm 2 m/S 744 mmHg 66%
    10:00 +32°C° 0 mm 2 m/S 744 mmHg 59%
    11:00 +36°C° 0 mm 2 m/S 744 mmHg 51%
    12:00 +36°C° 0 mm 2 m/S 743 mmHg 48%
    13:00 +37°C° 0 mm 2 m/S 742 mmHg 46%
    14:00 +38°C° 0 mm 2 m/S 741 mmHg 43%
    15:00 +36°C° 0 mm 2 m/S 741 mmHg 49%
    16:00 +35°C° 0 mm 2 m/S 741 mmHg 54%
    17:00 +33°C° 0 mm 1 m/S 741 mmHg 60%
    18:00 +31°C° 0 mm 1 m/S 741 mmHg 65%
    19:00 +30°C° 0 mm 1 m/S 742 mmHg 70%
    20:00 +28°C° 0 mm 1 m/S 742 mmHg 75%
    21:00 +28°C° 0 mm 1 m/S 742 mmHg 77%
    22:00 +27°C° 0 mm 1 m/S 742 mmHg 79%
    23:00 +27°C° 0 mm 2 m/S 743 mmHg 81%

    übermorgen, 23 September, Sonntag

    Zeit Temperatur Niederschläge Wind Luftdruck Luftfeuchtigkeit
    00:00 +26°C° 0 mm 1 m/S 742 mmHg 82%
    01:00 +26°C° 0 mm 1 m/S 742 mmHg 83%
    02:00 +25°C° 0 mm 1 m/S 742 mmHg 84%
    03:00 +25°C° 0 mm 1 m/S 742 mmHg 85%
    04:00 +25°C° 0 mm 1 m/S 742 mmHg 86%
    05:00 +25°C° 0 mm 1 m/S 743 mmHg 86%
    06:00 +26°C° 0 mm 2 m/S 743 mmHg 79%
    07:00 +28°C° 0 mm 2 m/S 743 mmHg 71%
    08:00 +30°C° 0 mm 2 m/S 743 mmHg 64%
    09:00 +33°C° 0 mm 3 m/S 743 mmHg 56%
    10:00 +36°C° 0 mm 3 m/S 743 mmHg 49%
    11:00 +38°C° 0 mm 3 m/S 743 mmHg 41%
    12:00 +38°C° 0 mm 3 m/S 742 mmHg 39%
    13:00 +39°C° 0 mm 3 m/S 742 mmHg 38%
    14:00 +39°C° 0 mm 3 m/S 741 mmHg 36%
    15:00 +38°C° 0 mm 2 m/S 741 mmHg 41%
    16:00 +36°C° 0 mm 2 m/S 741 mmHg 46%
    17:00 +34°C° 0 mm 1 m/S 741 mmHg 51%
    18:00 +32°C° 0 mm 2 m/S 741 mmHg 56%
    19:00 +31°C° 0 mm 2 m/S 742 mmHg 60%
    20:00 +29°C° 0 mm 2 m/S 742 mmHg 65%
    21:00 +29°C° 0 mm 2 m/S 743 mmHg 67%
    22:00 +28°C° 0 mm 2 m/S 743 mmHg 70%
    23:00 +27°C° 0 mm 1 m/S 743 mmHg 73%

    24 September, Montag

    Zeit Temperatur Niederschläge Wind Luftdruck Luftfeuchtigkeit
    00:00 +27°C° 0 mm 1 m/S 743 mmHg 74%
    01:00 +27°C° 0 mm 1 m/S 743 mmHg 75%
    02:00 +26°C° 0 mm 1 m/S 743 mmHg 75%
    03:00 +26°C° 0 mm 1 m/S 743 mmHg 76%
    04:00 +25°C° 0 mm 1 m/S 742 mmHg 77%
    05:00 +25°C° 0 mm 1 m/S 742 mmHg 77%
    06:00 +27°C° 0 mm 1 m/S 743 mmHg 70%
    07:00 +29°C° 0 mm 2 m/S 743 mmHg 62%
    08:00 +31°C° 0 mm 2 m/S 743 mmHg 55%
    09:00 +34°C° 0 mm 2 m/S 743 mmHg 48%
    10:00 +36°C° 0 mm 3 m/S 743 mmHg 41%
    11:00 +38°C° 0 mm 3 m/S 743 mmHg 34%
    12:00 +39°C° 0 mm 3 m/S 743 mmHg 33%
    13:00 +39°C° 0 mm 3 m/S 742 mmHg 32%
    14:00 +40°C° 0 mm 2 m/S 742 mmHg 31%
    15:00 +38°C° 0 mm 2 m/S 742 mmHg 37%
    16:00 +36°C° 0 mm 2 m/S 742 mmHg 42%
    17:00 +35°C° 0 mm 2 m/S 742 mmHg 48%
    18:00 +31°C° 1.4 mm 2 m/S 742 mmHg 60%
    19:00 +28°C° 1.4 mm 3 m/S 743 mmHg 73%
    20:00 +25°C° 1.4 mm 3 m/S 743 mmHg 86%
    21:00 +25°C° 3.6 mm 3 m/S 743 mmHg 88%
    22:00 +24°C° 3.6 mm 3 m/S 743 mmHg 91%
    23:00 +22°C° 3.6 mm 4 m/S 743 mmHg 94%

    25 September, Dienstag

    Zeit Temperatur Niederschläge Wind Luftdruck Luftfeuchtigkeit
    00:00 +22°C° 1.6 mm 4 m/S 743 mmHg 94%
    01:00 +22°C° 1.6 mm 4 m/S 742 mmHg 93%
    02:00 +22°C° 1.6 mm 4 m/S 742 mmHg 93%
    03:00 +22°C° 0.2 mm 3 m/S 742 mmHg 92%
    04:00 +22°C° 0.2 mm 3 m/S 742 mmHg 92%
    05:00 +23°C° 0.2 mm 2 m/S 741 mmHg 91%
    06:00 +24°C° 0.1 mm 2 m/S 742 mmHg 86%
    07:00 +26°C° 0.1 mm 2 m/S 742 mmHg 81%
    08:00 +27°C° 0.1 mm 2 m/S 743 mmHg 75%
    09:00 +27°C° 0.1 mm 2 m/S 743 mmHg 74%
    10:00 +28°C° 0.1 mm 2 m/S 743 mmHg 74%
    11:00 +28°C° 0.1 mm 2 m/S 743 mmHg 73%
    12:00 +28°C° 0.1 mm 1 m/S 742 mmHg 77%
    13:00 +27°C° 0.1 mm 1 m/S 742 mmHg 80%
    14:00 +27°C° 0.1 mm 1 m/S 741 mmHg 84%
    15:00 +27°C° 0.3 mm 1 m/S 741 mmHg 84%
    16:00 +27°C° 0.3 mm 1 m/S 741 mmHg 84%
    17:00 +27°C° 0.3 mm 1 m/S 740 mmHg 84%
    18:00 +26°C° 2 mm 1 m/S 741 mmHg 87%
    19:00 +25°C° 2 mm 1 m/S 741 mmHg 91%
    20:00 +24°C° 2 mm 2 m/S 741 mmHg 94%
    21:00 +24°C° 0.4 mm 2 m/S 741 mmHg 94%
    22:00 +24°C° 0.4 mm 2 m/S 741 mmHg 94%
    23:00 +23°C° 0.4 mm 2 m/S 741 mmHg 94%

    26 September, Mittwoch

    Zeit Temperatur Niederschläge Wind Luftdruck Luftfeuchtigkeit
    00:00 +23°C° 0.3 mm 1 m/S 740 mmHg 94%
    01:00 +23°C° 0.3 mm 1 m/S 740 mmHg 94%
    02:00 +23°C° 0.3 mm 1 m/S 740 mmHg 95%
    03:00 +23°C° 2.8 mm 1 m/S 740 mmHg 95%
    04:00 +23°C° 2.8 mm 1 m/S 740 mmHg 96%
    05:00 +23°C° 2.8 mm 1 m/S 740 mmHg 97%
    06:00 +23°C° 2.8 mm 1 m/S 740 mmHg 96%
    07:00 +23°C° 2.8 mm 2 m/S 741 mmHg 96%
    08:00 +24°C° 2.8 mm 2 m/S 742 mmHg 96%
    09:00 +25°C° 1.1 mm 2 m/S 741 mmHg 92%
    10:00 +25°C° 1.1 mm 3 m/S 741 mmHg 89%
    11:00 +26°C° 1.1 mm 3 m/S 741 mmHg 86%
    12:00 +27°C° 0.1 mm 3 m/S 740 mmHg 81%
    13:00 +28°C° 0.1 mm 2 m/S 740 mmHg 77%
    14:00 +29°C° 0.1 mm 2 m/S 739 mmHg 72%
    15:00 +29°C° 0.2 mm 2 m/S 739 mmHg 75%
    16:00 +28°C° 0.2 mm 2 m/S 739 mmHg 77%
    17:00 +28°C° 0.2 mm 2 m/S 739 mmHg 79%
    18:00 +27°C° 0.2 mm 2 m/S 739 mmHg 83%
    19:00 +26°C° 0.2 mm 2 m/S 739 mmHg 87%
    20:00 +25°C° 0.2 mm 2 m/S 739 mmHg 91%
    21:00 +25°C° 0.1 mm 2 m/S 739 mmHg 91%
    22:00 +24°C° 0.1 mm 2 m/S 739 mmHg 91%
    23:00 +24°C° 0.1 mm 2 m/S 739 mmHg 91%
    Mehr zeigen